This demonstration page uses our WeatherBlox Daily Observations layout. Learn more.

Left ArrowRight Arrow

Hourly Observations for October 25, 2021

Temp ( °F °C ) Dew Point ( °F °C ) Humidity (%) Winds ( mph kmh ) Pressure ( in mb ) Visibility ( mi km ) Precip ( " mm )
12:53 am 00:53 Clear 61 16.1 34 1.1 36 36 Calm 29.84 1011 10 16 0.00 0.00
1:53 am 01:53 Clear 63 17.2 35 1.7 35 35 SW 3 6 29.84 1010 10 16 0.00 0.00
2:53 am 02:53 Clear 60 15.6 34 1.1 38 38 ESE 6 9 29.86 1011 10 16 0.00 0.00
3:53 am 03:53 Clear 57 13.9 33 0.6 41 41 ESE 3 6 29.86 1011 10 16 0.00 0.00
4:53 am 04:53 Clear 55 12.8 32 0 42 42 ESE 3 6 29.87 1011 10 16 0.00 0.00
5:53 am 05:53 Clear 52 11.1 31 -0.6 45 45 E 3 6 29.87 1012 10 16 0.00 0.00
6:53 am 06:53 Clear 50 10 31 -0.6 48 48 N 3 6 29.89 1012 10 16 0.00 0.00
7:53 am 07:53 Clear 50 10 32 0 50 50 N 5 7 29.92 1013 10 16 0.00 0.00
8:53 am 08:53 Sunny 53 11.7 33 0.6 47 47 NNW 3 6 29.92 1013 10 16 0.00 0.00
9:53 am 09:53 Sunny 63 17.2 34 1.1 34 34 Calm 29.92 1013 10 16 0.00 0.00
10:53 am 10:53 Sunny 72 22.2 36 2.2 27 27 Calm 29.91 1013 10 16 0.00 0.00
11:53 am 11:53 Sunny 80 26.7 38 3.3 22 22 SSW 6 9 29.88 1012 10 16 0.00 0.00
12:53 pm 12:53 Sunny 84 28.9 38 3.3 19 19 VRB 7 11 29.87 1012 10 16 0.00 0.00
1:53 pm 13:53 Sunny 87 30.6 38 3.3 18 18 SSW 10 17 29.84 1011 10 16 0.00 0.00
2:53 pm 14:53 Sunny 90 32.2 38 3.3 16 16 SW 12 19 29.80 1009 10 16 0.00 0.00
3:53 pm 15:53 Sunny 92 33.3 37 2.8 14 14 SW 12 19 29.78 1009 10 16 0.00 0.00
4:53 pm 16:53 Sunny 91 32.8 36 2.2 14 14 S 10 17 29.77 1008 10 16 0.00 0.00
5:53 pm 17:53 Sunny 91 32.8 36 2.2 14 14 SSE 10 17 29.77 1008 10 16 0.00 0.00
6:53 pm 18:53 Sunny 88 31.1 36 2.2 16 16 SE 9 15 29.77 1008 10 16 0.00 0.00
7:53 pm 19:53 Clear 80 26.7 36 2.2 20 20 SE 9 15 29.79 1009 10 16 0.00 0.00
8:53 pm 20:53 Clear 80 26.7 36 2.2 20 20 ESE 10 17 29.79 1009 10 16 0.00 0.00
9:53 pm 21:53 Clear 77 25 41 5 28 28 SE 15 24 29.78 1008 10 16 0.00 0.00
10:53 pm 22:53 Clear 75 23.9 47 8.3 37 37 SSE 14 22 29.77 1008 10 16 0.00 0.00
11:53 pm 23:53 Clear 71 21.7 49 9.4 46 46 SE 10 17 29.77 1008 10 16 0.00 0.00

Powered by AerisWeather